x

La Perouse Bank (46206) Wave Buoy

3:00am - Tue 24th Oct 2017 All times are PDT. -7 hours from GMT.

  • Sig Wave height 7.2ft
  • Peak Period 15s
  • Wind
    13mph, 16mph gusts
  • Sea Temp 50°f
  • Air Temp 52°f
  • Sea Pressure 1035.6mb
  • La Perouse Bank
  • La Perouse Bank

More Historic Weather Station data

Upgrade to MSW Pro to gain access to the past 30 days of data for over 8000 Wavebouys and Weather Stations around the globe.

Join

Comparision Forecast

View Surf forecast
   
Tue 10/24 3:00am 7ft 15s 13 16 mph 1035.6mb 50f 52f
2:00am 7ft 12s 13 16 mph 1036mb 50f 52f
1:00am 7ft 12s 13 16 mph 1036.4mb 50f 52f
12:00am 7ft 12s 11 16 mph 1036.9mb 50f 52f
Mon 10/23 11:00pm 7ft 13s 13 18 mph 1037mb 50f 52f
10:00pm 8ft 11s 16 18 mph 1036.9mb 50f 52f
9:00pm 8ft 14s 18 20 mph 1036.9mb 50f 51f
8:00pm 9ft 14s 18 22 mph 1036.4mb 50f 51f
7:00pm 9.5ft 14s 18 22 mph 1036.1mb 50f 51f
6:00pm 9ft 14s 18 22 mph 1035.2mb 50f 51f
5:00pm 10ft 12s 18 22 mph 1035.4mb 50f 51f
4:00pm 10ft 14s 16 20 mph 1035.5mb 50f 51f
3:00pm 10ft 14s 18 22 mph 1035.1mb 50f 51f
2:00pm 10ft 13s 18 25 mph 1035.3mb 50f 51f
1:00pm 11.5ft 13s 18 22 mph 1035.6mb 50f 51f
12:00pm 10ft 13s 16 22 mph 1035.7mb 50f 51f
11:00am 10.5ft 13s 18 22 mph 1035.4mb 50f 51f
10:00am 11ft 14s 18 22 mph 1035mb 50f 52f
9:00am 11ft 14s 18 22 mph 1034.1mb 50f 52f
8:00am 11ft 13s 18 22 mph 1033.3mb 50f 51f
7:00am 12ft 12s 18 20 mph 1032.9mb 50f 51f
6:00am 12ft 13s 18 22 mph 1032.4mb 50f 51f
5:00am 12.5ft 13s 16 20 mph 1032mb 50f 51f
4:00am 14ft 14s 13 20 mph 1031.8mb 50f 51f
3:00am 15ft 14s 13 22 mph 1031.7mb 50f 51f
2:00am 14.5ft 14s 11 20 mph 1031.4mb 50f 51f
1:00am 16.5ft 13s 9 18 mph 1031mb 50f 51f
12:00am 15.5ft 13s 7 13 mph 1030.4mb 50f 51f
Sun 10/22 11:00pm 15.5ft 12s 4 9 mph 1029.8mb 50f 51f
10:00pm 15.5ft 13s 4 9 mph 1029.4mb 50f 51f
9:00pm 16.5ft 13s 7 9 mph 1028.6mb 50f 51f
8:00pm 16ft 13s 4 11 mph 1027.8mb 50f 51f
7:00pm 15.5ft 13s 2 4 mph 1027.2mb 50f 51f
6:00pm 15.5ft 12s 7 9 mph 1025.7mb 50f 52f
5:00pm 15.5ft 14s 9 13 mph 1024.7mb 51f 53f
4:00pm 15ft 13s 9 13 mph 1023.5mb 51f 53f
3:00pm 16.5ft 12s 11 13 mph 1022.8mb 51f 53f
2:00pm 16.5ft 12s 11 16 mph 1021.5mb 51f 53f
1:00pm 15ft 12s 9 13 mph 1020.2mb 51f 53f
12:00pm 15.5ft 11s 11 16 mph 1019.2mb 51f 53f
11:00am 15.5ft 10s 11 13 mph 1017.8mb 51f 52f
10:00am 16.5ft 10s 11 16 mph 1016.2mb 51f 53f
9:00am 15.5ft 11s 11 13 mph 1014.8mb 51f 53f
8:00am 15.5ft 10s 9 13 mph 1013.4mb 50f 52f
7:00am 14.5ft 10s 18 20 mph 1011.8mb 50f 53f
6:00am 15ft 10s 13 18 mph 1010.2mb 50f 53f
5:00am 14ft 10s 13 18 mph 1008.6mb 50f 52f
4:00am 12ft 11s 20 25 mph 1007.3mb 50f 52f
3:00am 12ft 10s 16 18 mph 1005.8mb 50f 54f
2:00am 12ft 11s 18 22 mph 1004.4mb 50f 54f
1:00am 12ft 10s 18 20 mph 1002.7mb 51f 53f
12:00am 11.5ft 10s 18 22 mph 1001mb 50f 54f
Sat 10/21 11:00pm 10.5ft 10s 16 20 mph 1000mb 50f 54f
10:00pm 11.5ft 9s 11 13 mph 999.9mb 50f 53f
9:00pm 11ft 10s 13 18 mph 998.8mb 50f 54f
8:00pm 11.5ft 11s 11 13 mph 998.3mb 50f 53f
7:00pm 11.5ft 10s 25 31 mph 996.7mb 50f 54f
6:00pm 11.5ft 10s 27 34 mph 995.1mb 50f 56f
5:00pm 11ft 10s 18 25 mph 995.5mb 50f 51f
4:00pm 10ft 9s 16 18 mph 997.2mb 50f 52f
3:00pm 10.5ft 9s 13 18 mph 997.9mb 50f 52f
2:00pm 11ft 9s 18 22 mph 998.9mb 50f 53f
1:00pm 11.5ft 8s 13 16 mph 1000mb 50f 53f
12:00pm 10.5ft 8s 16 18 mph 1000.5mb 50f 51f
11:00am 12ft 8s 25 34 mph 1000.3mb 50f 48f
10:00am 10.5ft 8s 22 31 mph 1000.7mb 50f 48f
9:00am 10ft 7s 25 34 mph 1000.5mb 50f 47f
8:00am 9.5ft 7s 29 36 mph 1000.9mb 50f 47f
7:00am 10.5ft 13s 31 38 mph 1001mb 50f 47f
6:00am 11ft 14s 31 43 mph 1002.2mb 50f 47f
5:00am 10ft 13s 31 40 mph 1003mb 50f 48f
4:00am 10ft 14s 29 38 mph 1004.2mb 50f 48f
3:00am 11.5ft 14s 27 36 mph 1005.7mb 50f 49f
2:00am 10.5ft 12s 25 31 mph 1006.6mb 50f 50f
1:00am 12ft 12s 18 27 mph 1007.3mb 50f 50f
12:00am 11.5ft 12s 20 27 mph 1007.8mb 49f 49f
Fri 10/20 11:00pm 13ft 14s 18 22 mph 1008.8mb 49f 50f
10:00pm 12ft 13s 16 20 mph 1009.2mb 50f 49f
9:00pm 12.5ft 14s 11 16 mph 1009.4mb 50f 50f
8:00pm 12ft 12s 11 16 mph 1009.8mb 50f 50f
7:00pm 12.5ft 14s 9 13 mph 1009.7mb 51f 49f
6:00pm 12ft 15s 4 9 mph 1009.6mb 51f 49f
5:00pm 13.5ft 15s 2 7 mph 1009.3mb 51f 50f
4:00pm 14ft 14s 13 16 mph 1008.7mb 51f 50f
3:00pm 14.5ft 15s 9 13 mph 1008mb 51f 51f
2:00pm 15ft 13s 11 18 mph 1007.5mb 51f 52f
1:00pm 15ft 15s 13 18 mph 1007mb 51f 52f
12:00pm 16ft 14s 13 20 mph 1006.3mb 51f 51f